Flag for Peru Weather past 2 weeks in Arequipa, Arequipa, Peru

Now
66 °F

Passing clouds.


Feels Like: 66 °F
Forecast: 54 / 71 °F
Wind: 12 mph from West

Location: Arequipa Airport

Current Time: Sep 17, 2014 at 12:55:33 PM

Latest Report: Sep 17, 2014 at 12:00 PM


Visibility: N/A

Pressure: 30.33 "Hg

Humidity: 24%

Dew point: 28 °F

Location of ArequipaLocation

Historic Weather in Arequipa — Graph

°F

Arequipa temperature yesterday

Maximum temperature yesterday: 70 °F (at 2:00 PM)
Minimum temperature yesterday: 50 °F (at 4:00 AM)
Average temperature yesterday: 58 °F

Past Weeks' High & Low Weather Summary

 TemperatureHumidityPressure
High73 °F (Sep 7, 11:00 AM)82% (Sep 13, 2:00 AM)30.39 "Hg (Sep 13, 2:00 AM)
Low46 °F (Sep 12, 6:00 AM)12% (Sep 10, 9:00 AM)30.15 "Hg (Sep 11, 4:00 AM)
Average60 °F29%30.30 "Hg
* Reported Sep 2 11:00 AM — Sep 17 11:00 AM, Arequipa, Weather by CustomWeather, © 2014

Note: Actual official high and low records may vary slightly from our data, if they occured in-between our weather recording intervals... More about our weather records

Advertising

Arequipa weather history for previous 24 hours

 ConditionsComfort  
Time TempWeatherWind HumidityBarometerVisibility
11:00 AM
Sep 17
68 °FPassing clouds.12 mph23%30.33 "HgN/A
10:00 AM68 °FPassing clouds.6 mph21%30.33 "HgN/A
9:00 AM64 °FSunny.3 mph24%30.33 "Hg10 mi
8:00 AM63 °FSunny.No wind27%30.33 "Hg10 mi
7:00 AM59 °FScattered clouds.2 mph29%30.33 "HgN/A
6:00 AM54 °FSunny.5 mph35%30.30 "Hg10 mi
5:00 AMN/AClear.3 mphN/AN/A10 mi
4:00 AM54 °FClear.No wind33%30.30 "Hg10 mi
3:00 AM55 °FClear.5 mph31%30.30 "Hg10 mi
2:00 AM55 °FClear.3 mph31%30.30 "Hg10 mi
1:00 AM54 °FClear.5 mph30%30.30 "Hg10 mi
12:00 AM55 °FClear.3 mph31%30.33 "Hg10 mi
11:00 PM
Sep 16
55 °FClear.7 mph33%30.36 "Hg10 mi
10:00 PM54 °FClear.No wind33%30.36 "Hg10 mi
9:00 PM55 °FClear.5 mph36%30.36 "Hg10 mi
8:00 PM55 °FClear.3 mph33%30.36 "Hg10 mi
7:00 PM57 °FClear.3 mph33%30.33 "Hg10 mi
6:00 PM57 °FClear.9 mph33%30.30 "Hg10 mi
5:00 PM64 °FSunny.13 mph22%30.27 "Hg10 mi
2:00 PM70 °FPassing clouds.13 mph18%30.27 "HgN/A
1:00 PM68 °FPassing clouds.12 mph20%30.30 "HgN/A
12:00 PM68 °FPassing clouds.10 mph21%30.33 "HgN/A
Weather by CustomWeather, © 2014

See weather overviewHow to use our weather pages